Find Starlink 34755

NORAD ID: 64940 Int'l Des: 2025-158 Owner: SPXS Country: US Constellation: starlink operational
LEOCIRCULARRETROGRADESSO

Current View

Loading 3D Globe...

About Starlink 34755

Description loading...

Upcoming Passes

Passes for default location (London). Set your location on the main map for personalized predictions.

Altitude History

Loading altitude history...

Two-Line Element Set

1 64940U 25158J 26146.56772805 .00005095 00000-0 36461-3 0 9995
2 64940 97.4416 10.7764 0001947 91.0525 269.0925 15.04845145 47094
Epoch: May 26, 2026 • Age: 8 hours

Current Status

Altitude 563.8 km
Velocity 7.59 km/s
Sub-Earth Point 77.73°N, 12.59°E
Launch Date Jul 27, 2025
Age 0.8 years
Type internet

Technical Details

Classification Payload
Mass 575.00 kg
Dry Mass 530.00 kg
Total Mass 575.00 kg
Length 0.30 m
Diameter 4.10 m
Span 29.00 m
Shape Box + pan
Manufacturer SPXS
Bus Type Starlink V2MO
Phase Status In Orbit
Owner/State SPXS/US

Most Searched